User: anonymous   Login
Location: Beuerbach
(48.1459°N, 10.9174°E)
Time: 21:32:50
(UTC+00:00)
Language:

Cosmos 1295 Rocket - Orbit

View from above orbital plane
View from above orbital plane
View from above satellite
View from above satellite

Ground track
Ground track

The orbit data is extracted from the following two-line orbital elements,

1 12682U 81077B   24205.42302037  .00000050  00000-0  34857-4 0  9992
2 12682  82.9140 236.2487 0032512 269.8038  89.9395 13.78765926159918
Epoch (UTC): 23 July 2024 10:09:08
Eccentricity: 0.0032512
inclination: 82.9140°
perigee height: 944 km
apogee height: 992 km
right ascension of ascending node: 236.2487°
argument of perigee: 269.8038°
revolutions per day: 13.78765926
mean anomaly at epoch: 89.9395°
orbit number at epoch: 15991

The dashed part of the orbit path shows where the satellite is in the earth's shadow,  

DLR